Location: Podia
(1.5569°N, 32.3469°E)
Time: 04:02:48
(UTC+00:00)

Hubble Space Telescope - Pass Details

Date: 12 May 2021
Orbit: 535 x 539 km, 28.5° (Epoch: 16 June)

Event Time Altitude Azimuth Distance (km) Brightness Sun altitude
Exits shadow 01:42:43 18° 126° (SE) 1,359 3.1 -28.8°
Drops below altitude 10° 01:44:31 10° 102° (ESE) 1,774 4.1 -28.4°
Sets 01:47:13 0° 85° (E) 2,662 5.4 -27.8°
